Regional Weather Roundup
Issued by NWS

Current Version | Previous Version | Text Only | Print | Product List | Glossary On
Versions: 1 2 3 4 5 6 7 8 9 10 11 12 13 14 15 16 17 18 19 20 21 22 23 24 25 26 27 28 29 30 31 32 33 34 35 36 37 38 39 40 41 42 43 44 45 46 47 48 49 50
755
ASUS42 KTBW 250619
RWRFL
FLORIDA REGIONAL WEATHER ROUNDUP
NATIONAL WEATHER SERVICE TAMPA BAY RUSKIN FL
200 AM EDT SUN AUG 25 2019

NOTE: "FAIR" INDICATES FEW OR NO CLOUDS BELOW 12,000 FEET WITH NO
SIGNIFICANT WEATHER AND/OR OBSTRUCTIONS TO VISIBILITY.

FLZ001>010-012>015-112-114-115-250700-
PANHANDLE FLORIDA

CITY           SKY/WX    TMP DP  RH WIND       PRES   REMARKS
PENSACOLA      FAIR      79  79 100 NW3       29.96F
PENSACOLA NAS  FAIR      77  77 100 CALM      29.96F
MILTON NAS     FAIR      75  75 100 CALM      29.97F
CRESTVIEW      FAIR      75  74  96 CALM      29.98F
DUKE FIELD     FAIR      76  76  98 CALM      29.97F
VALPARAISO     FAIR      78  75  90 NW3       29.96F
MARY ESTHER    PTCLDY    80  75  85 CALM      29.95F
TRI COUNTY     FAIR      78  73  84 CALM      29.98F
PANAMA CITY    NOT AVBL
TYNDALL AFB    FAIR      80  74  81 E3        29.96F
APALACHICOLA   MOCLDY    77  72  84 N5        29.96F

STATION/POSITION SKY/WX   TEMP    WIND        PRES    WAVE   SWELL
                          AIR SEA DIR/SP/G            HT/PER HT/PER
                          (F)     (DEG/KT/KT) (MB)    (FT/S) (FT/S)
30.1N   87.6W              85 86  270/  4/  6 1014.8F   1
29.2N   88.2W              85 87  180/  2/  4 1014.8F   1/ 6   2/ 6
28.8N   86.0W                 87  310/  6/  8 1014.5F   1/ 7
PANAMA CITY BEAC           82 87   80/  3/  5 1015.5F
TOWER C                    82     100/  4/  5 1014.7F
28.5N   84.5W              85     340/ 10/ 12 1014.8F   1/ 3

$$
FLZ011-016>038-118-127-128-134-139-239-250700-
NORTH FLORIDA

CITY           SKY/WX    TMP DP  RH WIND       PRES   REMARKS
MARIANNA       FAIR      76  75  97 S5        29.96F
TALLAHASSEE    FAIR      76  76 100 NE3       29.97F
PERRY          MOCLDY    77  76  97 NW7       29.99R
LIVE OAK       PTCLDY    77  77 100 NE5       29.96F
CROSS CITY     MOCLDY    80  75  84 CALM      29.97F
LAKE CITY      FAIR      75  73  94 CALM      29.97F
GAINESVILLE    FAIR      76  74  93 E3        29.99F
WILLISTON      FAIR      75  74  97 CALM      29.96F
MAYPORT NAS    FAIR      82  76  81 N3        29.96F
JACKSONVILLE   FAIR      77  75  93 CALM      29.96F
JAX NAS        FAIR      83  75  77 NE6       29.97F
JAX CECIL      FAIR      73  72  94 CALM      29.97F
FERNANDINA BEA FAIR      78  76  94 MISG      29.97F
ST AUGUSTINE   FAIR      80  77  90 NE3       29.97F
PALM COAST     FAIR      76  74  94 CALM      29.95F

STATION/POSITION SKY/WX   TEMP    WIND        PRES    WAVE   SWELL
                          AIR SEA DIR/SP/G            HT/PER HT/PER
                          (F)     (DEG/KT/KT) (MB)    (FT/S) (FT/S)
SHELL POINT      NOT AVBL
KEATON BEACH               77      60/  3/  4 1014.7F
CEDAR KEY                  83      90/ 10/ 11 1014.2F
FERNANDINA                 85 86              1015.7F
30.7N   81.3W                 84                N/A     2/ 7
MAYPORT                    81 85   20/  4/  4 1015.6F
31.4N   80.9W              82 83   40/  6/  6 1015.2F   2/ 7   2/ 7
ST AUGUSTINE               82 84   50/  7/  8 1014.3F

$$
FLZ040-043>046-052-053-057-058-063-144-250700-
INTERIOR CENTRAL FLORIDA

CITY           SKY/WX    TMP DP  RH WIND       PRES   REMARKS
OCALA          FAIR      77  75  93 CALM      29.97F
LEESBURG       FAIR      78  75  90 N3        29.96F
SANFORD        FAIR      78  75  90 NW3       29.94F
ORLANDO EXEC   FAIR      81  75  82 N5        29.95F
ORLANDO INTL   FAIR      78  74  87 N6        29.95F
KISSIMMEE      FAIR      80  75  84 N3        29.95F
WINTER HAVEN   FAIR      80  74  81 NE3       29.96F
BARTOW           N/A     79  75  89 N5        29.94F
SEBRING        FAIR      77  75  95 CALM      29.94F
OKEECHOBEE     FAIR      75  73  94 CALM      29.92F

$$
FLZ041-047-054-059-064-141-147-250700-
EAST CENTRAL FLORIDA

CITY           SKY/WX    TMP DP  RH WIND       PRES   REMARKS
DAYTONA BEACH  FAIR      79  76  90 NW3       29.95F
DELAND         FAIR      77  75  94 N5        29.95F
JFK SPACE CTR  CLEAR     77  75  95 NW3         N/A
CAPE CANAVERAL FAIR      80  79  96 MISG      29.92F
PATRICK AFB    FAIR      81  78  91 NW3       29.92F
MELBOURNE      FAIR      79  75  87 NW5       29.92F
VERO BEACH     FAIR      77  76  96 CALM      29.92F
FT PIERCE      FAIR      77  74  90 CALM      29.91F
STUART         FAIR      79  77  94 CALM      29.93F

STATION/POSITION SKY/WX   TEMP    WIND        PRES    WAVE   SWELL
                          AIR SEA DIR/SP/G            HT/PER HT/PER
                          (F)     (DEG/KT/KT) (MB)    (FT/S) (FT/S)
28.5N   80.2W              82 83  290/  4/  4 1013.3F   2/ 6   2/ 6
28.9N   78.5W              83 85  160/  8/ 12 1013.9F   3/ 7   3/ 7
TRIDENT PIER               81 83  310/  4/  5 1015.1F
28.4N   80.5W                 83                N/A     2/ 5
27.5N   80.2W                 84                N/A     2/ 7

$$
FLZ050-056-061-142-242-148-248-149-249-151-251-155-255-
160-260-250700-
WEST CENTRAL FLORIDA

CITY           SKY/WX    TMP DP  RH WIND       PRES   REMARKS
CRYSTAL RIVER  FAIR      79  73  83 CALM      29.95F
INVERNESS      FAIR      77  77 100 CALM      29.96F
BROOKSVILLE    FAIR      78  74  87 E3        29.96F
CLEARWATER AIR FAIR      81  73  78 E3        29.93F
ST PETE CLEARW FAIR      83  74  74 E7        29.93F
TAMPA INTL     FAIR      83  74  74 CALM      29.94F
TAMPA EXEC     FAIR      75  75 100 CALM      29.95F
PLANT CITY     FAIR      79  77  94 CALM      29.96F
MACDILL AFB    FAIR      79  75  85 NE3       29.93F
PETER O KNIGHT CLOUDY    81  77  89 NE5       29.94F
ST PETERSBURG  FAIR      83  75  77 E8        29.92F
SARASOTA       FAIR      80  76  87 CALM      29.92F
VENICE         FAIR      81  77  89 NE7       29.94R

STATION/POSITION SKY/WX   TEMP    WIND        PRES    WAVE   SWELL
                          AIR SEA DIR/SP/G            HT/PER HT/PER
                          (F)     (DEG/KT/KT) (MB)    (FT/S) (FT/S)
27.3N   84.2W                 86                N/A     2/ 4
CLEARWATER BEACH           85 88   90/  5/  7 1014.2F
MIDDLE TAMPA BAY           82     100/  6/  7 1014.5F
VENICE                     81 86   50/  4/  5 1013.6R

$$
FLZ066-069-070-075>078-162-262-165-265-250700-
SOUTHWEST FLORIDA AND KEYS

CITY           SKY/WX    TMP DP  RH WIND       PRES   REMARKS
PUNTA GORDA    FAIR      79  78  97 E5        29.94F
FT MYERS       FAIR      81  77  88 NE6       29.91F
SOUTHWEST INTL FAIR      80  78  94 E5        29.92F
NAPLES         FAIR      81  78  91 CALM      29.92F
MARCO ISLAND   MOCLDY    81  78  91 E6        29.93F
IMMOKALEE      FAIR      79  79 100 CALM      29.90F FOG
MARATHON       FAIR      84  78  82 SW5       29.92F HX  95
KEY WEST NAS   FAIR      86  77  74 SW7       29.93F HX  97
KEY WEST INTL  FAIR      85  76  74 SW6       29.94S

STATION/POSITION SKY/WX   TEMP    WIND        PRES    WAVE   SWELL
                          AIR SEA DIR/SP/G            HT/PER HT/PER
                          (F)     (DEG/KT/KT) (MB)    (FT/S) (FT/S)
NAPLES                     81 88              1013.2F
26.0N   85.6W              85 85   10/  6/  8 1014.4F   1/ 5   2/ 5
DRY TORTUGAS               85      CALM  /  2 1014.0F
SAND KEY                   85     210/  7/  9 1012.7F
SOMBRERO KEY               85     220/  8/ 11 1013.6F
LONG KEY                   86                 1012.5

$$
FLZ067-068-071>074-168-172>174-250700-
SOUTHEAST FLORIDA

CITY           SKY/WX    TMP DP  RH WIND       PRES   REMARKS
W PALM BEACH   FAIR      79  76  90 CALM      29.92F
FT LAUDER-EXEC FAIR      80  77  90 S3        29.92F
FT LAUDERDALE  FAIR      81  77  88 SW5       29.92S
POMPANO BEACH  FAIR      82  77  84 SW3       29.92F
PEMBROKE PINES FAIR      82  77  84 S5        29.94S
OPA LOCKA      FAIR      81  78  91 SW5       29.93F
MIAMI          FAIR      82  77  84 SW5       29.93S
WEST KENDALL   FAIR      80  79  96 CALM      29.92F
HOMESTEAD      FAIR      78  77  96 SE3       29.92F FOG

STATION/POSITION SKY/WX   TEMP    WIND        PRES    WAVE   SWELL
                          AIR SEA DIR/SP/G            HT/PER HT/PER
                          (F)     (DEG/KT/KT) (MB)    (FT/S) (FT/S)
VIRGINIA KEY               84 87  200/  7/  9 1013.2F
LAKE WORTH                 82 86  200/  4/  5 1014.4F
FOWEY ROCKS                84 85  210/ 13/ 14 1013.5F
SETTLEMENT POINT           84     200/ 10/ 11 1013.2F

$$





USA.gov is the U.S. government's official web portal to all federal, state and local government web resources and services.